CLUSTER II-FM6 (SALSA)

Last updated on Sat Sep 07 2024 00:03:25 GMT+0000 (Coordinated Universal Time)

1 26411U 00041B 24252.84967699 .00055456 -32455-3 00000+0 0 9999 2 26411 150.0716 39.2521 9137808 255.7706 0.1507 0.44420089 28482

Satellite not in orbit

CLUSTER II-FM6 (SALSA)